Location: DARK SKY Beskydy - Park tmavé oblohy, www.darkskybeskydy.cz
(49.4926°N, 18.5016°E)
Time: 10:04:37
(UTC+01:00)

Transit 4A - Visible Passes

Search period start: 25 February 2024 00:00
Search period end: 06 March 2024 00:00
Orbit: 869 x 974 km, 66.8° (Epoch: 24 February)

Date Brightness Start Highest point End Pass type
(mag) Time Alt. Az. Time Alt. Az. Time Alt. Az.
25 Feb 10.3 01:34:43 17° NE 01:34:43 17° NE 01:35:55 10° NE visible
25 Feb 9.3 03:18:13 28° N 03:18:13 28° N 03:22:05 10° NNE visible
25 Feb 9.8 05:01:42 10° NW 05:05:10 15° N 05:08:36 10° NNE visible
26 Feb 10.1 01:43:29 19° NNE 01:43:29 19° NNE 01:45:02 10° NE visible
26 Feb 9.4 03:26:58 24° NNW 03:26:58 24° NNW 03:31:07 10° NNE visible
26 Feb 9.9 05:11:31 10° NW 05:14:48 15° N 05:18:02 10° NNE visible
27 Feb 10.0 01:52:13 21° NNE 01:52:13 21° NNE 01:54:05 10° NNE visible
27 Feb 9.5 03:35:42 21° NNW 03:35:42 21° NNW 03:40:09 10° NNE visible
27 Feb 9.9 05:21:11 10° NNW 05:24:26 15° N 05:27:39 10° NE visible
28 Feb 9.9 02:00:56 22° NNE 02:00:56 22° NNE 02:03:06 10° NNE visible
28 Feb 9.6 03:44:25 18° NNW 03:45:14 18° NNW 03:49:16 10° NNE visible
28 Feb 10.0 05:30:40 10° NNW 05:34:04 15° N 05:37:25 10° NE visible
29 Feb 9.8 02:09:38 23° N 02:09:38 23° N 02:12:07 10° NNE visible
29 Feb 9.8 03:53:07 15° NNW 03:54:49 16° NNW 03:58:27 10° NNE visible
29 Feb 10.0 05:40:00 10° NNW 05:43:40 16° NNE 05:47:19 10° NE visible
01 Mar 10.6 00:34:51 11° NE 00:34:51 11° NE 00:35:01 10° NE visible
01 Mar 9.8 02:18:20 22° N 02:18:20 22° N 02:21:09 10° NNE visible
01 Mar 9.9 04:01:48 12° NW 04:04:26 15° N 04:07:46 10° NNE visible
01 Mar 9.9 05:49:10 10° NNW 05:53:14 19° NNE 05:57:15 10° ENE visible
02 Mar 10.5 00:43:31 13° NNE 00:43:31 13° NNE 00:44:06 10° NNE visible
02 Mar 9.7 02:26:59 21° N 02:26:59 21° N 02:30:11 10° NNE visible
02 Mar 10.0 04:10:50 10° NW 04:14:03 15° N 04:17:15 10° NNE visible
03 Mar 10.4 00:52:10 15° NNE 00:52:10 15° NNE 00:53:08 10° NNE visible
03 Mar 9.8 02:35:39 20° NNW 02:35:39 20° NNW 02:39:14 10° NNE visible
03 Mar 10.1 04:20:26 10° NNW 04:23:41 15° N 04:26:55 10° NE visible
04 Mar 10.3 01:00:48 17° NNE 01:00:48 17° NNE 01:02:10 10° NNE visible
04 Mar 9.8 02:44:17 17° NNW 02:44:29 18° NNW 02:48:22 10° NNE visible
04 Mar 10.1 04:29:52 10° NNW 04:33:19 15° N 04:36:44 10° NE visible
05 Mar 10.2 01:09:25 18° NNE 01:09:25 18° NNE 01:11:11 10° NNE visible
05 Mar 9.9 02:52:54 15° NNW 02:54:03 16° NNW 02:57:35 10° NNE visible
05 Mar 10.1 04:39:08 10° NNW 04:42:54 17° NNE 04:46:39 10° NE visible
